Regional Weather Roundup
Issued by NWS

Home | Current Version | Previous Version | Text Only | Print | Product List | Glossary On
Versions: 1 2 3 4 5 6 7 8 9 10 11 12 13 14 15 16 17 18 19 20 21 22 23 24 25 26 27 28 29 30 31 32 33 34 35 36 37 38 39 40 41 42 43 44 45 46 47 48 49 50
000
ASCA42 TJSJ 261811
RWRPR
PUERTO RICO/U.S. VIRGIN ISLANDS HOURLY WEATHER ROUNDUP
NATIONAL WEATHER SERVICE SAN JUAN PR
200 PM AST WED NOV 26 2014

PRZ001-004-261900-
PUERTO RICO

CITY           SKY/WX    TMP DP  RH WIND       PRES   REMARKS
SAN JUAN LMM   MOSUNNY   84  75  74 NE20      29.98F HX  92
MAYAGUEZ       MOSUNNY   88  70  55 E8        29.98F HX  92
AGUADILLA      MOSUNNY   84  73  70 E15G26    29.99F HX  91
CEIBA          SUNNY     84  72  65 E14       30.00F
$$

PRZ006-007-261900-
U.S. VIRGIN ISLANDS

CITY           SKY/WX    TMP DP  RH WIND       PRES   REMARKS
CHRISTIANSTED  MOSUNNY   88  72  58 E17       29.97  HX  94
$$

HOURLY WEATHER ROUNDUP FOR THE NEWS MEDIA

CITY           SKY/WX    TMP DP  RH WIND       PRES   REMARKS
MIAMI          CLOUDY    71  62  73 NW15G25   30.06F
ORLANDO        CLOUDY    56  51  84 W12       30.13F
NEW YORK       LGTSLEET  36  33  89 N13       30.00F FOG     WCI  27
NEWARK         LGT SNOW  33  32  96 N12       30.02F VSB 1   WCI  24
CHICAGO        CLOUDY    27  20  75 SE7       30.12F WCI  19
HARTFORD       LGT RAIN  40  39  97 N10       29.99F FOG     WCI  33
BOSTON         RAIN      39  37  92 NE15      30.08F FOG     WCI  31
DALLAS         FAIR      60  31  33 N12       30.17S
PHILADELPHIA   LGT SNOW  36  32  85 N18       29.94F FOG     WCI  26


USA.gov is the U.S. government's official web portal to all federal, state and local government web resources and services.